#timestamp,LO_Frequency,Hit,StdDev 
1567933215.8,286046999.7,N
1567933235.6,286047001.5,N
1567933255.5,286047003.6,N
1567933275.3,286047003.6,N
1567933295.1,286047005.4,N
1567933315.9,286047005.8,N
1567933335.7,286047005.2,N
1567933355.6,286047005.7,N
1567933375.4,286047006.0,N
1567933395.2,286047005.3,N
1567933415.1,286047002.8,N
1567933416.0,286047002.8,N
1567933435.8,286046999.6,N
1567933455.7,286046997.4,N
1567933475.5,286046995.1,N
1567933495.3,286046991.7,N
1567933515.2,286046992.4,N
1567933535.0,286046988.6,N
1567933535.9,286046988.6,N
1567933555.7,286046986.0,N
1567933575.6,286046982.2,N
1567933595.4,286046980.9,N
1567933615.3,286046981.1,N
1567933635.1,286046981.5,N
1567933636.0,286046981.5,N
1567933655.8,286046981.4,N
1567933675.7,286046979.1,N
1567933695.5,286046979.7,N
1567933715.3,286046979.1,N
1567933735.2,286046977.4,N
1567933755.0,286046978.4,N
1567933755.9,286046978.4,N
1567933775.8,286046977.2,N
1567933795.6,286046973.0,N
1567933815.4,286046973.6,N
1567933835.3,286046970.6,N
1567933855.1,286046967.9,N
1567933875.8,286046970.6,N
1567933895.7,286046969.3,N
1567933915.5,286046973.9,N
1567933935.4,286046970.9,Y
1567933955.2,286046986.1,P
1567933975.0,286046982.5,P
1567933975.9,286046982.5,P
1567933995.8,286046984.3,Y
1567934015.6,286047005.7,P
1567934035.5,286047006.2,N
1567934055.3,286047006.8,N
1567934075.1,286047004.8,N
1567934095.9,286047009.2,N
1567934115.7,286047008.3,N
1567934135.5,286047011.6,N
1567934155.4,286047013.1,N
1567934175.2,286047013.0,N
1567934195.1,286047011.6,N
1567934196.0,286047011.6,N
1567934215.8,286047010.6,N
1567934235.6,286047009.2,N
1567934255.5,286047011.9,N
1567934275.3,286047007.4,N
1567934295.1,286047007.6,N
1567934315.9,286047008.8,N
1567934335.7,286047010.6,N
1567934355.6,286047007.9,N
1567934375.4,286047006.5,N
1567934395.2,286047007.5,N
1567934415.1,286047005.6,N
1567934416.0,286047005.6,N
1567934435.8,286047005.3,N
1567934455.7,286047001.3,N
1567934475.5,286047001.3,N
1567934495.3,286047002.1,N
1567934515.2,286046999.8,N
1567934535.9,286047001.4,N
1567934555.7,286047002.2,N
1567934575.6,286047000.9,N
1567934595.4,286046998.6,N
1567934615.3,286046998.9,N
1567934635.1,286047000.7,N
1567934636.0,286047000.7,N
1567934655.8,286047004.3,N
1567934675.7,286047003.1,N
1567934695.5,286047001.7,N
1567934715.3,286047001.8,N
1567934735.2,286047001.4,N
1567934755.0,286047003.2,N
1567934755.9,286047003.2,N
1567934775.8,286047005.9,N
1567934795.6,286047005.2,N
1567934815.4,286047006.7,N
1567934835.3,286047006.3,N
1567934855.1,286047008.0,N
1567934875.8,286047010.2,Y
1567934895.7,286047010.7,P
1567934915.5,286047009.3,N
1567934935.4,286047007.9,N
1567934955.2,286047007.5,N
1567934975.0,286047006.7,N
1567934975.9,286047006.7,Y
1567934995.8,286047001.3,P
1567935015.6,286046998.9,N
1567935035.4,286046995.1,N
1567935055.3,286046997.8,N
1567935075.1,286046997.4,N
1567935095.9,286046996.0,N
1567935115.7,286046994.0,N
1567935135.5,286046991.6,N
1567935155.4,286046985.5,Y
1567935175.2,286046987.5,P
1567935195.1,286046986.5,N
1567935196.0,286046986.5,N
1567935215.8,286046985.1,Y
1567935235.6,286046991.7,P
1567935255.5,286046993.1,P
1567935275.3,286046995.5,P
1567935295.1,286046994.6,N
1567935315.9,286046990.9,Y
1567935335.7,286046995.0,P
1567935355.6,286046999.4,N
1567935375.4,286046999.1,N
1567935395.2,286046999.3,N
1567935415.1,286047002.0,N
1567935416.0,286047002.0,N
1567935435.8,286047003.4,N
1567935455.6,286047006.2,N
1567935475.5,286047008.2,N
1567935495.3,286047009.1,N
1567935515.2,286047002.9,N
1567935535.9,286047003.7,N
1567935555.7,286047006.7,N
1567935575.6,286047007.3,N
1567935595.4,286047006.7,N
1567935615.2,286047006.3,N
1567935635.1,286047008.6,N
1567935636.0,286047008.6,N
1567935655.8,286047007.0,N
1567935675.7,286047006.0,N
1567935695.5,286047003.4,N
1567935715.3,286047003.6,N
1567935735.2,286047003.1,N
1567935755.0,286047005.3,N
1567935755.9,286047005.3,N
1567935775.7,286047007.2,N
1567935795.6,286047007.6,N
1567935815.4,286047006.2,N
1567935835.3,286047007.1,N
1567935855.1,286047006.6,N
1567935856.0,286047006.6,N
1567935875.8,286047010.6,Y
1567935895.7,286047008.8,P
1567935915.5,286047004.5,N
1567935935.4,286047003.6,N
1567935955.2,286047003.8,N
1567935975.0,286047004.1,N
1567935975.9,286047004.1,N
1567935995.8,286047002.9,N
1567936015.6,286047003.8,N
1567936035.4,286047005.3,Y
1567936055.3,286047002.5,P
1567936075.1,286047001.7,N
1567936095.9,286047004.2,P
1567936115.7,286047005.7,Y
1567936135.5,286047001.3,P
1567936155.4,286047002.8,N
1567936175.2,286047000.0,N
1567936195.0,286046999.6,N
1567936196.0,286046999.6,N
1567936215.8,286046999.2,N
1567936235.6,286046999.1,N
1567936255.5,286046997.1,N
1567936275.3,286046999.4,N
1567936295.1,286047000.1,N
1567936315.9,286047002.8,N
1567936335.7,286047001.5,N
1567936355.6,286047004.1,N
1567936375.4,286047003.8,N
1567936395.2,286047004.3,N
1567936415.1,286047002.0,N
1567936416.0,286047002.0,N
1567936435.8,286047001.3,N
1567936455.6,286047004.7,N
1567936475.5,286047004.6,N
1567936495.3,286047004.8,N
1567936515.1,286047002.1,N
1567936535.9,286046996.8,N
1567936555.7,286046996.3,N
1567936575.6,286046994.8,N
1567936595.4,286046993.1,N
1567936615.2,286046992.3,N
1567936635.1,286046991.8,N
1567936636.0,286046991.8,N
1567936655.8,286046991.0,N
1567936675.6,286046989.8,N
1567936695.5,286046985.4,Y
1567936715.3,286046984.3,P
1567936735.2,286046984.4,N
1567936755.9,286046983.9,N
1567936775.7,286046983.8,N
1567936795.6,286046984.2,N
